Weather in Bol'shoye Shelepino

Russia / Tula Oblast     54°28′52″N   37°09′36″E
temp.,
°C
wind,
m/s
gust,
m/s
humid.,
%
clouds,
%
prec.,
mm/h
press.,
hPa
HPBL,
m
15 april, thu
thu1500:00+11se2353100 0.0 101616
03:00+11s1153100 0.0 101510
06:00+10ene3558100 0.0 101567
09:00+13ese4658100 0.0 1015262
12:00+17ese3546100 0.0 1014740
15:00+18e5741100 0.0 10141503
18:00+16ese3653100 0.0 1013121
21:00+11s2382100 0.1 101547
16 april, fri
fri1600:00+11ese2280100 0.1 101529
03:00+10ene368489 0.2 1015122
06:00+9e488797 0.0 1017203
09:00+12e5874100 0.0 1018431
12:00+14e6763100 0.0 1018884
15:00+15e7966100 0.4 10181251
18:00+14e8136898 3.4 1017747
21:00+10sse4888100 12.8 1019270
17 april, sat
sat1700:00+10ene4109376 0.3 1020334
03:00+9ene51093100 0.6 1020381
06:00+8ene61093100 0.0 1021423
09:00+9ene7128883 0.1 1021524
12:00+13ene9126797 0.0 10201132
15:00+15ene81162100 0.1 10191418
18:00+13ene81366100 0.0 1019937
21:00+11ene8167197 0.0 1020672
18 april, sun
sun1800:00+8ne7147527 0.0 1020515
03:00+6ne71468100 0.0 1020479
06:00+5ne713725 0.0 1021476
09:00+7ene7116772 0.0 1022739
12:00+8ene6972100 0.0 1022805
15:00+7e49726 0.0 1023580
18:00+10e476320 0.0 1023355
21:00+6e11815 0.0 102410
19 april, mon
mon1900:00+5ne22835 0.0 102518
03:00+3ne49835 0.0 1026182
06:00+3ne410885 0.0 1026246
09:00+7ene69769 0.0 1027622
12:00+10ene7862100 0.0 10261417
15:00+9ene5765100 0.0 10271402
18:00+8ene4867100 0.0 1027458
21:00+7e496099 0.0 1028269